Estación Meteorológica Peña el Pijo (Robertgarden) [ 11/16/19 01:55:16 CET ]

Fecha Hora Presion(HPa) Temp (°C) Humedad % Rocio (°C) Viento ( m/s) Direccion Lluvia 1Hora(mm) Lluvia 24H(mm) LLuvia Total(mm)
2019-Jul-11 01:09:17 1010.800 - - - - NNW     342.62
2019-Jul-11 02:09:20 1010.500 - - - - NNW     342.62
2019-Jul-11 03:09:38 1010.500 - - - - NNW     342.62
2019-Jul-11 04:09:27 1010.200 - - - - NNW     342.62
2019-Jul-11 05:09:17 1010.000 - - - - NNW     342.62
2019-Jul-11 06:09:34 1009.800 - - - - NNW     342.62
2019-Jul-11 07:09:45 1010.100 - - - - NNW     342.62
2019-Jul-11 08:09:10 1010.200 - - - - NNW     342.62
2019-Jul-11 09:09:19 1010.400 - - - - NNW     342.62
2019-Jul-11 10:09:18 1010.400 - - - - NNW     342.62
2019-Jul-11 11:09:51 1010.100 - - - - NNW     342.62
2019-Jul-11 12:09:03 1010.400 - - - - NNW     342.62
2019-Jul-11 13:09:02 1010.100 - - - - NNW     342.62
2019-Jul-11 14:09:27 1009.800 - - - - NNW     342.62
2019-Jul-11 15:09:31 1009.600 - - - - NNW     342.62
2019-Jul-11 16:09:20 1009.600 - - - - NNW     342.62
2019-Jul-11 17:08:54 1009.400 - - - - NNW     342.62
2019-Jul-11 18:09:08 1009.100 - - - - NNW     342.62
2019-Jul-11 19:09:07 1009.100 - - - - NNW     342.62
2019-Jul-11 20:09:26 1009.400 - - - - NNW     342.62
2019-Jul-11 21:09:10 1009.600 - - - - NNW     342.62
2019-Jul-11 22:09:16 1010.200 - - - - NNW     342.62
2019-Jul-11 23:09:41 1011.100 - - - - NNW     342.62

Temperatura Máxima:    Temperatura Mínima:
Presión Máxima:1011.100 Hpa    Presión Mínima:1009.100 Hpa


Volver